Date String (YYYY-MM-DD hh:mm:ss) UTC,Instrument flags,absolute air pressure of the measurement (hPa),sample flow rate (lpm),inlet stack bypass flow (lpm),air temperature of the measurement (°C),ambient temperature measured by the external sensor (°C),aerosol sample conditioner tube jacket temperature (°C),OPC LED temperature (°C),internal box temperature (°C),relative humidity of the measurement (%),span deviation,mass concentration of particles derived from Lorenz-Mie calculation of OPC scattering (μg/m³),mass concentration of particles derived from Lorenz-Mie calculation of OPC scattering (μg/m³),mass concentration of particles derived from Lorenz-Mie calculation of OPC scattering (μg/m³)
DateTimeUTC,F1_M11,P_M11,Q1_M11,Q2_M11,T1_M11,T2_M11,T3_M11,T4_M11,T5_M11,U1_M11,ZSPAN_M11,X0_M11,X2_M11,X1_M11
2023-12-04 02:00:00,SystemResetWarning,0826.2,4.99,000.00,018.6,017.3,000.0,027.2,020.0,13.9,0000.0,0007.99,0003.27,0002.50
2023-12-04 02:01:00,SystemResetWarning,0826.2,5.00,000.00,018.6,017.3,000.0,027.1,020.0,14.1,0000.0,0008.17,0003.23,0002.47
2023-12-04 02:02:00,SystemResetWarning,0826.1,5.00,000.00,018.6,017.3,000.0,027.1,020.0,14.1,0000.0,0008.40,0003.20,0002.44
2023-12-04 02:03:00,SystemResetWarning,0826.1,5.01,000.00,018.6,017.3,000.0,027.1,020.0,13.9,0000.0,0008.64,0003.19,0002.41
2023-12-04 02:04:00,SystemResetWarning,0826.1,5.00,000.00,018.6,017.3,000.0,027.1,020.0,14.0,0000.0,0009.14,0003.22,0002.39
2023-12-04 02:05:00,SystemResetWarning,0826.2,5.00,000.00,018.6,017.3,000.0,027.1,020.0,14.1,0000.0,0009.18,0003.24,0002.39
2023-12-04 02:06:00,SystemResetWarning,0826.3,5.00,000.00,018.6,017.3,000.0,027.1,020.0,14.2,0000.0,0009.08,0003.22,0002.39
2023-12-04 02:07:00,SystemResetWarning,0826.3,5.00,000.00,018.6,017.4,000.0,027.1,020.0,14.2,0000.0,0009.03,0003.22,0002.39
2023-12-04 02:08:00,SystemResetWarning,0826.4,5.00,000.00,018.6,017.4,000.0,027.1,020.0,14.1,0000.0,0007.85,0003.18,0002.37
2023-12-04 02:09:00,SystemResetWarning,0826.3,5.01,000.00,018.6,017.4,000.0,027.1,020.0,14.0,0000.0,0007.78,0003.13,0002.35
2023-12-04 02:10:00,SystemResetWarning,0826.2,4.99,000.00,018.6,017.5,000.0,027.1,020.0,13.9,0000.0,0007.76,0003.11,0002.33
2023-12-04 02:11:00,SystemResetWarning,0826.2,5.00,000.00,018.6,017.5,000.0,027.1,020.0,13.9,0000.0,0007.75,0003.09,0002.29
2023-12-04 02:12:00,SystemResetWarning,0826.1,4.99,000.00,018.6,017.5,000.0,027.1,020.0,13.6,0000.0,0007.43,0003.10,0002.27
2023-12-04 02:13:00,SystemResetWarning,0826.2,5.00,000.00,018.6,017.5,000.0,027.1,020.0,13.5,0000.0,0007.32,0003.10,0002.26
2023-12-04 02:14:00,SystemResetWarning,0826.2,5.00,000.00,018.6,017.5,000.0,027.1,020.0,13.6,0000.0,0007.29,0003.07,0002.25
2023-12-04 02:15:00,SystemResetWarning,0826.3,5.00,000.00,018.6,017.5,000.0,027.1,020.0,13.7,0000.0,0006.49,0003.01,0002.26
2023-12-04 02:16:00,SystemResetWarning,0826.3,5.00,000.00,018.6,017.5,000.0,027.1,020.0,13.8,0000.0,0006.99,0002.91,0002.26
2023-12-04 02:17:00,SystemResetWarning,0826.3,5.01,000.00,018.6,017.5,000.0,027.1,020.0,13.6,0000.0,0007.39,0002.90,0002.26
2023-12-04 02:18:00,SystemResetWarning,0826.4,5.01,000.00,018.6,017.5,000.0,027.1,020.0,14.1,0000.0,0007.50,0002.86,0002.27
2023-12-04 02:19:00,SystemResetWarning,0826.4,5.01,000.00,018.6,017.5,000.0,027.1,020.0,14.0,0000.0,0007.84,0002.89,0002.29
2023-12-04 02:20:00,SystemResetWarning,0826.4,5.00,000.00,018.6,017.5,000.0,027.1,020.0,14.0,0000.0,0007.83,0002.92,0002.29
2023-12-04 02:21:00,SystemResetWarning,0826.3,4.99,000.00,018.6,017.5,000.0,027.1,020.0,14.0,0000.0,0008.11,0002.94,0002.31
2023-12-04 02:22:00,SystemResetWarning,0826.3,4.99,000.00,018.6,017.5,000.0,027.1,020.0,13.7,0000.0,0008.82,0003.00,0002.34
2023-12-04 02:23:00,SystemResetWarning,0826.2,5.00,000.00,018.6,017.5,000.0,027.1,020.0,13.5,0000.0,0008.82,0003.02,0002.37
2023-12-04 02:24:00,SystemResetWarning,0826.3,5.00,000.00,018.7,017.5,000.0,027.1,020.0,13.4,0000.0,0008.80,0003.09,0002.39
2023-12-04 02:25:00,SystemResetWarning,0826.4,5.01,000.00,018.6,017.5,000.0,027.1,020.0,13.3,0000.0,0008.51,0003.12,0002.39
2023-12-04 02:26:00,SystemResetWarning,0826.6,5.01,000.00,018.7,017.5,000.0,027.1,020.0,13.7,0000.0,0008.62,0003.15,0002.40
2023-12-04 02:27:00,SystemResetWarning,0826.6,5.00,000.00,018.6,017.5,000.0,027.1,020.0,14.0,0000.0,0008.20,0003.18,0002.41
2023-12-04 02:28:00,SystemResetWarning,0826.6,5.00,000.00,018.6,017.5,000.0,027.2,020.0,14.4,0000.0,0007.98,0003.22,0002.44
2023-12-04 02:29:00,SystemResetWarning,0826.4,5.00,000.00,018.6,017.5,000.0,027.2,020.0,14.6,0000.0,0007.98,0003.25,0002.45
2023-12-04 02:30:00,SystemResetWarning,0826.3,5.00,000.00,018.7,017.5,000.0,027.2,020.0,14.8,0000.0,0007.43,0003.28,0002.46
2023-12-04 02:31:00,SystemResetWarning,0826.3,5.00,000.00,018.7,017.6,000.0,027.1,020.0,14.3,0000.0,0007.53,0003.30,0002.48
2023-12-04 02:32:00,SystemResetWarning,0826.2,5.00,000.00,018.7,017.6,000.0,027.1,020.0,13.1,0000.0,0007.39,0003.32,0002.49
2023-12-04 02:33:00,SystemResetWarning,0826.1,5.00,000.00,018.6,017.5,000.0,027.1,020.0,12.7,0000.0,0005.92,0003.28,0002.47
2023-12-04 02:34:00,SystemResetWarning,0826.2,5.00,000.00,018.6,017.5,000.0,027.1,020.0,12.9,0000.0,0005.96,0003.25,0002.46
2023-12-04 02:35:00,SystemResetWarning,0826.2,4.99,000.00,018.6,017.5,000.0,027.1,020.0,12.8,0000.0,0005.98,0003.23,0002.46
2023-12-04 02:36:00,SystemResetWarning,0826.2,5.00,000.00,018.6,017.5,000.0,027.1,020.0,12.7,0000.0,0005.91,0003.21,0002.49
2023-12-04 02:37:00,SystemResetWarning,0826.3,5.00,000.00,018.7,017.4,000.0,027.1,020.0,12.8,0000.0,0006.02,0003.22,0002.50
2023-12-04 02:38:00,SystemResetWarning,0826.4,5.00,000.00,018.6,017.4,000.0,027.1,020.0,12.5,0000.0,0006.38,0003.25,0002.55
2023-12-04 02:39:00,SystemResetWarning,0826.4,5.01,000.00,018.6,017.4,000.0,027.1,020.0,12.7,0000.0,0007.27,0003.28,0002.56
2023-12-04 02:40:00,SystemResetWarning,0826.4,5.00,000.00,018.6,017.4,000.0,027.1,020.0,12.7,0000.0,0007.12,0003.23,0002.53
2023-12-04 02:41:00,SystemResetWarning,0826.3,5.00,000.00,018.6,017.4,000.0,027.1,020.0,12.6,0000.0,0006.64,0003.19,0002.50
2023-12-04 02:42:00,SystemResetWarning,0826.2,5.00,000.00,018.6,017.4,000.0,027.1,020.0,12.7,0000.0,0006.49,0003.16,0002.46
2023-12-04 02:43:00,SystemResetWarning,0826.2,5.00,000.00,018.6,017.4,000.0,027.1,020.0,12.6,0000.0,0006.76,0003.13,0002.41
2023-12-04 02:44:00,SystemResetWarning,0826.3,4.99,000.00,018.6,017.4,000.0,027.1,020.0,12.6,0000.0,0006.66,0003.11,0002.39
2023-12-04 02:45:00,SystemResetWarning,0826.4,5.00,000.00,018.6,017.4,000.0,027.1,020.0,12.7,0000.0,0006.99,0003.11,0002.39
2023-12-04 02:46:00,SystemResetWarning,0826.5,4.99,000.00,018.6,017.4,000.0,027.1,020.0,12.9,0000.0,0007.32,0003.08,0002.35
2023-12-04 02:47:00,SystemResetWarning,0826.6,5.00,000.00,018.6,017.4,000.0,027.1,020.0,12.7,0000.0,0007.56,0003.07,0002.32
2023-12-04 02:48:00,SystemResetWarning,0826.6,5.00,000.00,018.6,017.4,000.0,027.1,020.0,12.8,0000.0,0007.38,0002.98,0002.29
2023-12-04 02:49:00,SystemResetWarning,0826.6,5.00,000.00,018.6,017.5,000.0,027.1,020.0,12.8,0000.0,0006.94,0002.85,0002.22
2023-12-04 02:50:00,SystemResetWarning,0826.4,5.00,000.00,018.6,017.5,000.0,027.1,020.0,12.7,0000.0,0005.89,0002.73,0002.19
2023-12-04 02:51:00,SystemResetWarning,0826.4,5.00,000.00,018.6,017.5,000.0,027.1,020.0,12.6,0000.0,0006.15,0002.72,0002.19
2023-12-04 02:52:00,SystemResetWarning,0826.3,5.01,000.00,018.6,017.5,000.0,027.1,020.0,12.6,0000.0,0006.72,0002.75,0002.22
2023-12-04 02:53:00,SystemResetWarning,0826.4,5.01,000.00,018.6,017.6,000.0,027.1,020.0,12.6,0000.0,0006.60,0002.73,0002.23
2023-12-04 02:54:00,SystemResetWarning,0826.4,5.00,000.00,018.7,017.6,000.0,027.1,020.0,12.6,0000.0,0006.26,0002.74,0002.25
2023-12-04 02:55:00,SystemResetWarning,0826.4,4.99,000.00,018.6,017.6,000.0,027.1,020.0,12.4,0000.0,0006.43,0002.77,0002.26
2023-12-04 02:56:00,SystemResetWarning,0826.4,4.99,000.00,018.7,017.6,000.0,027.1,020.0,12.5,0000.0,0006.62,0002.79,0002.25
2023-12-04 02:57:00,SystemResetWarning,0826.4,5.00,000.00,018.7,017.6,000.0,027.1,020.0,12.6,0000.0,0006.04,0002.85,0002.27
2023-12-04 02:58:00,SystemResetWarning,0826.4,5.00,000.00,018.7,017.6,000.0,027.1,020.0,12.6,0000.0,0005.74,0002.89,0002.29
2023-12-04 02:59:00,SystemResetWarning,0826.3,5.00,000.00,018.7,017.6,000.0,027.1,020.0,12.6,0000.0,0007.33,0002.93,0002.30
